Hourly Data Report for October 27, 2014

All times are specified in Local Standard Time (LST). Add 1 hour to adjust for Daylight Saving Time where and when it is observed.

TORONTO INTL A
ONTARIO

43°40'36.000" N
79°37'50.000" W
173.40 m
6158731
71624
YYZ

Download Data

Hourly Data (October 2014)
Hourly Data Report for October 27, 2014
Temp Definition
°C
Dew Point Temp Definition
°C
Rel Hum Definition
%
Wind Dir Definition
10's deg

Wind Spd Definition
km/h
Visibility Definition
km
Stn Press Definition
kPa
Hmdx Definition


Wind Chill Definition


Weather Definition


TIME
00:00 Legend Double Dagger 3.5 1.7 88 27 16 24.1 99.26     LegendNANA
01:00 Legend Double Dagger 3.2 1.4 88 28 9 24.1 99.28     Clear
02:00 Legend Double Dagger 2.4 0.9 90 27 8 24.1 99.30     LegendNANA
03:00 Legend Double Dagger 2.8 1.3 90 28 9 24.1 99.32     LegendNANA
04:00 Legend Double Dagger 2.6 1.3 91 28 9 24.1 99.36     Clear
05:00 Legend Double Dagger 2.6 1.4 92 31 3 24.1 99.41     LegendNANA
06:00 Legend Double Dagger 2.3 0.8 90 27 9 24.1 99.46     LegendNANA
07:00 Legend Double Dagger 3.0 1.5 90 36 2 24.1 99.50     Mainly Clear
08:00 Legend Double Dagger 4.7 2.4 85 36 3 24.1 99.58     LegendNANA
09:00 Legend Double Dagger 6.5 3.0 78 4 4 24.1 99.60     LegendNANA
10:00 Legend Double Dagger 8.6 2.6 66 13 9 24.1 99.58     Mostly Cloudy
11:00 Legend Double Dagger 9.2 3.8 69 13 14 24.1 99.56     LegendNANA
12:00 Legend Double Dagger 9.7 4.5 70 14 13 24.1 99.49     LegendNANA
13:00 Legend Double Dagger 10.6 6.0 73 11 13 24.1 99.40     Mostly Cloudy
14:00 Legend Double Dagger 10.9 5.1 67 11 13 24.1 99.34     LegendNANA
15:00 Legend Double Dagger 10.6 3.9 63 11 12 24.1 99.27     LegendNANA
16:00 Legend Double Dagger 10.8 3.6 61 13 12 24.1 99.25     Cloudy
17:00 Legend Double Dagger 10.6 4.3 65 11 16 24.1 99.11     LegendNANA
18:00 Legend Double Dagger 10.1 4.7 69 11 15 24.1 99.09     LegendNANA
19:00 Legend Double Dagger 9.8 5.0 72 11 11 24.1 99.04     Mostly Cloudy
20:00 Legend Double Dagger 9.9 5.7 75 9 10 24.1 99.01     LegendNANA
21:00 Legend Double Dagger 10.2 6.8 79 9 8 24.1 98.95     LegendNANA
22:00 Legend Double Dagger 10.6 7.1 79 6 11 24.1 99.00     Cloudy
23:00 Legend Double Dagger 10.0 8.0 87 9 12 24.1 98.91     LegendNANA

Notes on Data Quality.

Legend

  • E = Estimated
  • M = Missing
  • NA = Not Available
  • ‡ = Partner data that is not subject to review by the National Climate Archives
Date modified: